This demonstration page uses our WeatherBlox Daily Observations layout. Learn more.

41.55636, -103.73856

Hourly Observations for May 24, 2018

Temp ( °F °C ) Dew Point ( °F °C ) Humidity (%) Winds ( mph kmh ) Pressure ( in mb ) Visibility ( mi km ) Precip ( " mm )
12:53 am 00:53 Clear 52 11.1 50 10 93 93 NW 3 6 29.88 1012 10 16.09344 0 0
1:53 am 01:53 Clear 51 10.6 50 10 96 96 NNW 8 13 29.88 1012 10 16.09344 0 0
2:53 am 02:53 Clear 50 10 49 9.4 96 96 NW 7 11 29.88 1012 10 16.09344 0 0
3:53 am 03:53 Clear 49 9.4 49 9.4 100 100 Calm 29.88 1012 10 16.09344 0 0
4:53 am 04:53 Clear 49 9.4 48 8.9 97 97 NW 3 6 29.91 1013 10 16.09344 0 0
5:53 am 05:53 Sunny 48 8.9 48 8.9 100 100 Calm 29.91 1013 10 16.09344 0 0
6:53 am 06:53 Sunny 53 11.7 52 11.1 96 96 Calm 29.94 1014 10 16.09344 0 0
7:53 am 07:53 Sunny 59 15 54 12.2 83 83 WNW 10 17 29.94 1014 10 16.09344 0 0
8:53 am 08:53 Sunny 65 18.3 52 11.1 63 63 WNW 9 15 29.94 1014 10 16.09344 0 0
9:53 am 09:53 Sunny 72 22.2 52 11.1 50 50 W 10 17 29.91 1013 10 16.09344 0 0
10:53 am 10:53 Sunny 76 24.4 51 10.6 42 42 WNW 13 20 29.91 1013 10 16.09344 0 0
11:53 am 11:53 Sunny 80 26.7 50 10 35 35 WSW 14 22 29.88 1012 10 16.09344 0 0
12:53 pm 12:53 Sunny 82 27.8 48 8.9 31 31 W 13 20 29.88 1012 10 16.09344 0 0
1:53 pm 13:53 Sunny 82 27.8 49 9.4 32 32 W 13 20 29.88 1012 10 16.09344 0 0
2:53 pm 14:53 Sunny 84 28.9 49 9.4 30 30 W 14 22 29.85 1011 10 16.09344 0 0
3:53 pm 15:53 Sunny 84 28.9 48 8.9 29 29 W 14 22 29.85 1011 10 16.09344 0 0
4:53 pm 16:53 Sunny 83 28.3 50 10 32 32 WNW 8 13 29.85 1011 10 16.09344 0 0
5:53 pm 17:53 Mostly Sunny 84 28.9 49 9.4 30 30 WSW 9 15 29.85 1011 10 16.09344 0 0
6:53 pm 18:53 Sunny 79 26.1 51 10.6 38 38 SW 14 22 29.85 1011 10 16.09344 0 0
7:53 pm 19:53 Sunny 74 23.3 55 12.8 52 52 Calm 29.85 1011 10 16.09344 0 0
8:53 pm 20:53 Clear 70 21.1 53 11.7 55 55 Calm 29.85 1011 10 16.09344 0 0
9:53 pm 21:53 Clear 62 16.7 53 11.7 73 73 NE 5 7 29.88 1012 10 16.09344 0 0
10:53 pm 22:53 Clear 60 15.6 52 11.1 75 75 NNE 7 11 29.88 1012 10 16.09344 0 0
11:53 pm 23:53 Clear 59 15 51 10.6 75 75 Calm 29.85 1011 10 16.09344 0 0

Powered by AerisWeather